www.weatherandclimate.eu
WEATHER в Сидней аэропорту
Time
(UTC), date
07 23.11
08 23.11
09 23.11
10 23.11
11 23.11
12 23.11
13 23.11
14 23.11
15 23.11
16 23.11
17 23.11
18 23.11
19 23.11
20 23.11
21 23.11
22 23.11
23 23.11
00 24.11
01 24.11
02 24.11
03 24.11
04 24.11
05 24.11
06 24.11
07 24.11
08 24.11
09 24.11
10 24.11
11 24.11
12 24.11
13 24.11
14 24.11
15 24.11
16 24.11
17 24.11
18 24.11
19 24.11
20 24.11
21 24.11
22 24.11
23 24.11
00 25.11
01 25.11
02 25.11
03 25.11
04 25.11
05 25.11
06 25.11
07 25.11
08 25.11
09 25.11
10 25.11
11 25.11
12 25.11
13 25.11
14 25.11
15 25.11
16 25.11
17 25.11
18 25.11
19 25.11
20 25.11
21 25.11
22 25.11
23 25.11
00 26.11
01 26.11
02 26.11
03 26.11
04 26.11
05 26.11
06 26.11
07 26.11
08 26.11
09 26.11
10 26.11
11 26.11
12 26.11
13 26.11
14 26.11
15 26.11
16 26.11
17 26.11
18 26.11
19 26.11
20 26.11
21 26.11
22 26.11
23 26.11
00 27.11
01 27.11
02 27.11
03 27.11
04 27.11
05 27.11
06 27.11
07 27.11
08 27.11
09 27.11
10 27.11
11 27.11
12 27.11
13 27.11
14 27.11
15 27.11
16 27.11
17 27.11
18 27.11
19 27.11
20 27.11
21 27.11
22 27.11
23 27.11
00 28.11
01 28.11
02 28.11
03 28.11
04 28.11
05 28.11
06 28.11
07 28.11
08 28.11
09 28.11
10 28.11
11 28.11
12 28.11
13 28.11
14 28.11
15 28.11
16 28.11
17 28.11
18 28.11
19 28.11
20 28.11
21 28.11
22 28.11
23 28.11
00 29.11
01 29.11
02 29.11
03 29.11
04 29.11
05 29.11
06 29.11
07 29.11
08 29.11
09 29.11
10 29.11
11 29.11
12 29.11
13 29.11
14 29.11
15 29.11
16 29.11
17 29.11
18 29.11
19 29.11
20 29.11
21 29.11
22 29.11
23 29.11
00 30.11
01 30.11
02 30.11
03 30.11
04 30.11
05 30.11
06 30.11
Wind
(dir.,m/s)
Visibility Phenomena Clouds Т
(С)
Тd
(С)
f
(%)
Тe
(С)
Тes
(С)
Comfort P
(hPa)
Po
hPa)
Тmin
(С)
Tmax
(С)
R
(mm)
R24
(mm)
S
(sm)
W 6 25 km slightrain 9/1 1500 м
[Cu hum Ac As Cs]
+24.9 +14.7 53 +28 +28 hot 1004.3 1003.7
S 6 н/о н/о +23.0 +15.8 64 +27 +27 stuffily 1005.6 1005.0
S 7 н/о н/о +21.1 +16.3 74 +24 +24 comfort 1006.0 1005.4
S 7 40 km {rain} 5/1 1500 м
[Cu med, cong Ac trans Ci sp]
+20.8 +16.2 75 +24 +24 comfort 1007.3 1006.7
S 9 н/о н/о +20.1 +17.1 83 +22 +22 comfort 1008.5 1007.9
S 9 н/о н/о +19.7 +16.2 80 +21 +21 comfort 1008.7 1008.1
S 7 30 km 3/3 1500 м
[Cu Sc Ac trans Cs]
+19.6 +16.4 82 +21 +21 comfort 1008.9 1008.3 +27.4
S 6 н/о н/о +19.6 +15.9 79 +21 +21 comfort 1009.1 1008.5
S 8 н/о н/о +19.5 +16.0 80 +21 +21 comfort 1009.3 1008.7
S 8 30 km 1/1 1000 м
[Cu hum Ci sp]
+19.3 +15.2 77 +20 +20 warm 1008.8 1008.2
S 5 н/о н/о +19.1 +15.6 80 +20 +20 warm 1008.7 1008.1
S 6 н/о н/о +19.1 +15.6 80 +20 +20 warm 1009.1 1008.5
S 6 15 km slightrainshowers 9/8 300 м
[Cu med, cong Ac trans]
+18.9 +15.6 81 +20 +20 warm 1010.0 1009.4
S 9 н/о н/о +19.2 +15.7 80 +20 +20 warm 1010.9 1010.3
S 9 н/о н/о +18.9 +15.4 80 +19 +19 warm 1011.3 1010.7
S 10 25 km 6/5 300 м
[Cu Sc Ac trans Ci fib]
+20.7 +15.0 70 +23 +23 comfort 1011.7 1011.1 0.8
S 10 н/о н/о +20.3 +14.0 67 +22 +22 comfort 1012.3 1011.7
S 10 н/о н/о +20.6 +14.5 68 +23 +23 comfort 1012.1 1011.5
S 8 30 km 8/1 600 м
[Cu Sc Ci]
+20.7 +13.9 65 +23 +26 comfort 1011.8 1011.2 +18.4
S 9 н/о н/о +20.3 +14.4 69 +22 +22 comfort 1011.8 1011.2
S 8 н/о н/о +21.0 +13.7 63 +23 +23 comfort 1011.8 1011.2
SE 8 30 km 3/1 600 м
[Cu hum Cc]
+22.7 +14.0 58 +26 +28 hot 1011.3 1010.7
SE 8 н/о н/о +21.6 +14.3 63 +25 +25 comfort 1010.9 1010.3
SE 7 н/о н/о +22.2 +15.5 66 +26 +26 stuffily 1011.0 1010.4
SE 6 22 km 4/4 600 м
[Cu hum Ci sp]
+20.6 +14.3 67 +23 +24 comfort 1011.3 1010.7
SE 6 н/о н/о +20.0 +14.8 72 +22 +22 comfort 1012.2 1011.6
SE 6 н/о н/о +19.6 +14.8 74 +21 +21 comfort 1013.2 1012.6
S 5 25 km 9/9 600 м
[Cu Sc]
+19.5 +15.4 77 +21 +21 comfort 1014.0 1013.4
SE 4 н/о н/о +19.5 +15.2 76 +21 +21 comfort 1014.3 1013.7
S 4 н/о н/о +19.4 +15.3 77 +21 +21 comfort 1014.6 1014.0
SE 3 25 km 9/9 600 м
[Cu Sc]
+19.5 +15.6 78 +22 +22 comfort 1014.6 1014.0 +23.5
S 4 н/о н/о +19.1 +16.0 82 +21 +21 comfort 1014.2 1013.6
S 4 н/о н/о +19.1 +16.1 83 +21 +21 comfort 1013.7 1013.1
S 4 20 km slightrainshowers 9/9 300 м
[Cu Sc]
+19.0 +16.6 86 +20 +20 warm 1013.4 1012.8
N 3 н/о н/о +18.3 +15.4 83 +19 +19 warm 1013.3 1012.7
SW 3 н/о н/о +17.2 +15.5 90 +17 +17 warm 1013.6 1013.0
SW 3 30 km distantprecipitation {drizzle} 9/9 300 м
[Cu Sc]
+17.4 +16.1 92 +18 +18 warm 1014.1 1013.5
SW 3 н/о н/о +18.3 +16.6 90 +19 +19 warm 1014.6 1014.0
SW 2 н/о н/о +18.9 +16.1 84 +21 +21 comfort 1015.1 1014.5
S 4 20 km slightrainshowers 9/9 300 м
[Cu Sc]
+19.4 +15.7 79 +21 +22 comfort 1015.3 1014.7 0.4
W 3 н/о н/о +19.1 +16.0 82 +21 +21 comfort 1015.3 1014.7
S 4 н/о н/о +19.8 +16.8 83 +22 +22 comfort 1015.2 1014.6
E 5 30 km {drizzle} 9/9 300 м
[Cu Sc]
+21.6 +16.3 72 +25 +26 comfort 1014.7 1014.1 +16.7
E 5 н/о н/о +21.1 +14.7 67 +24 +24 comfort 1014.3 1013.7
NE 5 н/о н/о +22.8 +13.8 57 +26 +26 hot 1013.4 1012.8
E 7 30 km 3/3 1000 м
[Cu Sc]
+23.2 +13.7 55 +27 +30 stuffily 1012.8 1012.2
E 7 н/о н/о +23.5 +13.9 55 +26 +26 hot 1012.1 1011.5
NE 8 н/о н/о +23.4 +13.6 54 +27 +27 stuffily 1011.5 1010.9
NE 8 30 km 1/1 1500 м
[Cu hum]
+22.8 +13.3 55 +26 +26 hot 1011.4 1010.8
NE 8 н/о н/о +22.2 +12.7 55 +25 +25 comfort 1011.6 1011.0
NE 7 н/о н/о +21.3 +13.7 62 +24 +24 comfort 1012.1 1011.5
NE 8 30 km ясно +21.3 +14.5 65 +24 +24 comfort 1012.4 1011.8
N 8 н/о н/о +21.1 +14.3 65 +24 +24 comfort 1012.8 1012.2
N 7 н/о н/о +20.7 +13.4 63 +23 +23 comfort 1013.0 1012.4
N 4 30 km ясно +19.9 +13.8 68 +22 +22 comfort 1013.0 1012.4 +24.9
N 4 н/о н/о +19.3 +13.9 71 +21 +21 comfort 1012.1 1011.5
NW 4 н/о н/о +19.0 +14.3 74 +20 +20 warm 1011.6 1011.0
N 4 30 km ясно +18.5 +14.2 76 +19 +19 warm 1011.0 1010.4
N 3 н/о н/о +18.9 +14.4 75 +20 +20 warm 1010.6 1010.0
N 3 н/о н/о +18.8 +14.3 75 +20 +20 warm 1010.8 1010.2
NW 3 25 km ясно +19.2 +14.9 76 +21 +21 comfort 1011.3 1010.7
N 4 н/о н/о +20.2 +13.9 67 +23 +23 comfort 1011.8 1011.2
NW 3 н/о н/о +21.6 +14.0 62 +24 +24 comfort 1012.2 1011.6
NW 4 25 km ясно +24.6 +14.4 53 +27 +33 hot 1012.1 1011.5 1.0
NW 3 н/о н/о +26.6 +14.4 47 +29 +29 hot 1011.8 1011.2
N 2 н/о н/о +28.8 +14.6 42 +31 +31 hot 1011.6 1011.0
E 4 25 km 1/1 1500 м
[Cu med, cong]
+31.3 +13.1 33 +32 +46 hot 1011.1 1010.5 +17.9
E 6 н/о н/о +31.9 +15.8 38 +35 +35 very stuffily 1010.5 1009.9
E 8 н/о н/о +31.2 +16.0 40 +34 +34 stuffily 1009.9 1009.3
NE 7 25 km 1/1 1500 м
[Cu hum]
+29.9 +16.0 43 +33 +37 stuffily 1009.6 1009.0
NE 8 н/о н/о +29.7 +15.0 41 +32 +32 stuffily 1009.6 1009.0
NE 6 н/о н/о +28.3 +15.2 45 +31 +31 stuffily 1009.7 1009.1
NE 5 28 km 1/1 1500 м
[Cu hum Ci fib]
+27.3 +16.6 52 +31 +32 stuffily 1010.3 1009.7
NE 5 н/о н/о +25.6 +15.9 55 +29 +29 stuffily 1011.4 1010.8
S 9 н/о н/о +24.3 +15.8 59 +27 +27 hot 1013.1 1012.5
S 12 14 km haze 8/8 300 м
[St]
+21.2 +19.1 88 +26 +26 stuffily 1015.3 1014.7
S 12 н/о н/о +20.8 +18.4 86 +24 +24 comfort 1016.7 1016.1
S 12 н/о н/о +20.4 +17.0 81 +23 +23 comfort 1017.5 1016.9
S 11 12 km haze 4/4 300 м
[Sc]
+20.2 +16.8 81 +22 +22 comfort 1017.7 1017.1 +33.6
S 10 н/о н/о +20.0 +15.0 73 +21 +21 comfort 1017.9 1017.3
S 10 н/о н/о +19.8 +14.2 70 +21 +21 comfort 1017.9 1017.3
S 9 16 km haze 9/9 600 м
[Sc]
+19.6 +15.3 76 +21 +21 comfort 1017.8 1017.2
S 8 н/о н/о +19.1 +14.8 76 +20 +20 warm 1017.7 1017.1
S 7 н/о н/о +19.1 +15.0 77 +20 +20 warm 1018.1 1017.5
S 6 14 km haze 9/9 600 м
[Sc]
+18.8 +14.7 77 +19 +19 warm 1018.6 1018.0
S 5 н/о н/о +19.2 +14.9 76 +20 +20 warm 1019.0 1018.4
S 5 н/о н/о +19.6 +14.6 73 +21 +21 comfort 1019.1 1018.5
S 4 14 km haze 9/9 600 м
[Cu Sc]
+20.0 +14.8 72 +22 +23 comfort 1019.4 1018.8
SE 4 н/о н/о +20.4 +14.7 70 +23 +23 comfort 1019.0 1018.4
E 3 н/о н/о +21.4 +14.8 66 +24 +24 comfort 1018.6 1018.0
E 3 18 km haze 4/4 600 м
[Cu Sc]
+23.6 +15.9 62 +27 +37 hot 1017.3 1016.7 +18.4
SE 7 н/о н/о +24.3 +16.0 60 +28 +28 stuffily 1016.5 1015.9
E 7 н/о н/о +24.9 +16.6 60 +28 +28 hot 1015.4 1014.8
NE 8 12 km haze 3/0
[Ci fib]
+25.2 +16.9 60 +29 +32 stuffily 1014.2 1013.6
NE 7 н/о н/о +25.6 +16.7 58 +29 +29 stuffily 1013.4 1012.8
NE 8 н/о н/о +24.9 +17.4 63 +29 +29 stuffily 1012.6 1012.0
NE 7 15 km haze 1/1 600 м
[Cu hum Ac trans]
+24.3 +17.8 67 +28 +29 stuffily 1012.8 1012.2
NE 8 н/о н/о +24.6 +18.1 67 +29 +29 stuffily 1013.1 1012.5
N 9 н/о н/о +23.5 +18.8 75 +28 +28 stuffily 1012.9 1012.3
N 7 20 km 1/0
[Ac trans Ci fib]
+23.7 +19.4 77 +29 +29 stuffily 1013.1 1012.5
N 5 н/о н/о +23.9 +19.0 74 +29 +29 stuffily 1013.1 1012.5
N 3 н/о н/о +23.9 +19.2 75 +29 +29 stuffily 1012.9 1012.3
NE 3 20 km 1/0
[Ci fib]
+23.4 +19.1 77 +30 +30 very stuffily 1012.2 1011.6 +26.9
NE 2 н/о н/о +22.6 +18.8 79 +28 +28 stuffily 1011.6 1011.0
0 н/о н/о +22.4 +18.6 79 +28 +28 stuffily 1010.8 1010.2
0 20 km 1/0
[Ci fib]
+22.5 +19.1 81 +28 +28 stuffily 1010.1 1009.5
N 3 н/о н/о +22.2 +19.0 82 +28 +28 stuffily 1009.6 1009.0
NW 3 н/о н/о +21.9 +18.5 81 +27 +27 stuffily 1009.5 1008.9
N 4 15 km haze 8/0
[Ac trans Ci fib]
+22.1 +18.7 81 +27 +27 stuffily 1009.5 1008.9
NW 4 н/о н/о +23.2 +18.3 74 +29 +29 stuffily 1009.8 1009.2
NW 4 н/о н/о +25.6 +18.8 66 +31 +31 very stuffily 1009.8 1009.2
NW 3 20 km haze 8/0
[Ac trans Ci fib]
+29.3 +18.4 52 +34 +40 very stuffily 1009.4 1008.8
NW 5 н/о н/о +34.3 +16.2 34 +37 +37 very stuffily 1008.4 1007.8
NW 8 н/о н/о +37.5 +13.5 24 +38 +38 very hot 1007.7 1007.1
NW 8 25 km 9/0
[Ac trans Ci sp]
+40.7 +13.3 20 +41 +43 risk of overheating 1007.0 1006.4 +20.9
NW 9 н/о н/о +40.7 +9.0 15 +39 +39 very hot 1006.3 1005.7
NW 9 н/о н/о +41.6 +8.7 14 +40 +40 very hot 1005.5 1004.9
NW 9 30 km 6/1 2000 м
[Cu hum Ac trans Ci sp]
+41.3 +7.4 13 +39 +40 very hot 1004.8 1004.2
NW 10 н/о н/о +41.9 +6.7 12 +39 +39 very hot 1004.2 1003.6
NW 9 н/о н/о +40.8 +7.0 13 +38 +38 very hot 1003.6 1003.0
N 8 30 km 9/0
[Ac trans Ci sp]
+39.0 +7.7 15 +37 +37 very hot 1003.3 1002.7
NW 5 н/о н/о +38.8 +9.4 17 +37 +37 very hot 1003.5 1002.9
NE 6 н/о н/о +31.8 +15.7 38 +34 +34 stuffily 1004.1 1003.5
N 4 25 km 9/0
[Ac As]
+31.3 +16.9 42 +35 +35 very stuffily 1004.2 1003.6
N 4 н/о н/о +31.7 +16.0 39 +35 +35 very stuffily 1004.1 1003.5
S 11 н/о н/о +25.2 +17.9 64 +30 +30 stuffily 1004.9 1004.3
S 5 20 km distantprecipitation {drizzle} 9/0
[Ac As]
+24.2 +19.5 75 +29 +29 stuffily 1007.1 1006.5 +43.0
NE 4 н/о н/о +26.7 +18.6 61 +32 +32 very stuffily 1006.6 1006.0
NW 5 н/о н/о +29.0 +16.5 47 +32 +32 stuffily 1004.7 1004.1
NW 9 25 km distantprecipitation {drizzle} 9/0
[Ac As]
+31.1 +12.9 33 +32 +32 hot 1002.2 1001.6
NW 11 н/о н/о +31.0 +12.4 32 +32 +32 hot 1001.3 1000.7
NW 10 н/о н/о +31.2 +12.5 32 +32 +32 hot 999.9 999.3
NW 8 30 km {rain} 9/0
[Ac trans Cc]
+31.5 +11.8 30 +32 +32 hot 1000.6 1000.0
NW 9 н/о н/о +31.2 +11.1 29 +31 +31 hot 1000.6 1000.0
NW 8 н/о н/о +31.6 +10.9 28 +32 +32 hot 1000.7 1000.1
NW 11 40 km 9/0
[Ac trans Cs]
+33.0 +10.9 26 +33 +33 hot 1000.4 999.8 0.0
NW 11 н/о н/о +36.5 +8.4 18 +35 +35 very hot 999.4 998.8
NW 14 н/о н/о +37.8 +6.7 15 +35 +35 very hot 998.5 997.9
NW 16 30 km 6/0
[Ac trans Ci sp]
+40.4 +7.8 14 +38 +38 very hot 997.7 997.1 +23.0
NW 15 н/о н/о +40.0 +7.4 14 +38 +38 very hot 997.5 996.9
W 16 н/о н/о +41.1 +8.3 14 +39 +39 very hot 997.5 996.9
W 15 30 km 9/1
[Cu hum Ac cast Cs]
+39.3 +8.9 16 +37 +37 very hot 998.3 997.7
W 13 н/о н/о +36.6 +10.7 21 +36 +36 very hot 998.4 997.8
S 8 н/о н/о +35.6 +11.3 23 +35 +35 very hot 1001.2 1000.6
SE 9 9000 m haze 9/3 600 м
[Cu hum Ac cast Cs]
+23.3 +17.7 71 +29 +29 stuffily 1004.8 1004.2
SE 9 н/о н/о +21.9 +16.4 71 +26 +26 stuffily 1007.5 1006.9
SE 9 н/о н/о +21.5 +14.4 64 +24 +24 comfort 1009.5 1008.9
SE 11 12 km haze 9/8 300 м
[Sc Ci sp]
+20.9 +13.1 61 +23 +23 comfort 1011.1 1010.5
SE 10 н/о н/о +20.6 +13.1 62 +22 +22 comfort 1013.2 1012.6
S 9 н/о н/о +20.0 +13.7 67 +21 +21 comfort 1014.3 1013.7
S 10 12 km haze 8/8 600 м
[Cu Sc Ci sp]
+19.8 +12.8 64 +21 +21 comfort 1014.8 1014.2 +42.6
SE 7 н/о н/о +19.7 +12.5 63 +21 +21 comfort 1015.5 1014.9
SE 7 н/о н/о +19.0 +13.4 70 +20 +20 warm 1015.6 1015.0
S 9 14 km haze 9/9 600 м
[Cu Sc]
+19.1 +12.8 67 +19 +19 warm 1015.4 1014.8
S 8 н/о н/о +18.9 +12.6 67 +19 +19 warm 1015.4 1014.8
SE 7 н/о н/о +18.9 +12.9 68 +19 +19 warm 1016.0 1015.4
SE 6 22 km haze 9/9 600 м
[Cu Sc]
+19.1 +12.8 67 +20 +20 warm 1016.7 1016.1
S 6 н/о н/о +19.4 +13.1 67 +20 +20 warm 1017.2 1016.6
SE 5 н/о н/о +19.6 +13.1 66 +21 +21 comfort 1017.7 1017.1
SE 5 25 km haze 9/9 600 м
[Cu Sc]
+20.7 +13.2 62 +23 +24 comfort 1018.2 1017.6
SE 4 н/о н/о +20.7 +14.4 67 +24 +24 comfort 1018.2 1017.6
SE 5 н/о н/о +21.3 +13.7 62 +24 +24 comfort 1018.1 1017.5
SE 5 25 km haze 5/5 600 м
[Cu Sc]
+21.9 +15.0 65 +25 +31 comfort 1017.6 1017.0 +18.5
SE 6 н/о н/о +22.1 +13.7 59 +25 +25 comfort 1017.3 1016.7
SE 7 н/о н/о +21.6 +13.8 61 +24 +24 comfort 1016.8 1016.2
E 7 25 km distantprecipitation 9/9 600 м
[Cu Sc]
+22.7 +14.0 58 +26 +26 hot 1016.4 1015.8
NE 8 н/о н/о +22.0 +13.1 57 +25 +25 comfort 1015.9 1015.3
NE 7 н/о н/о +22.0 +13.6 59 +25 +25 comfort 1015.8 1015.2
Weather station location Сидней аэропорт (New South Wales, Australia): latitude -33.95 longitude 151.18 Height above sea level 6 m.
The archive shows weather in в Сидней аэропорту for the last week. For the whole month and for the previous months, starting from January 2011, you can obtain archived data by selecting the date range of interest from the drop-down list and clicking the "Find!".
*Decide who are you:
Attention! The time in the tables is UTC. To get the local time, you must add an amendment that is equal to 10 h.
See also the weather archive in nearby cities and at nearby weather stations:
Partners of our site:
Column explanations:
  • Wind - indicated wind speed in m/s - average for 10 minutes, gusts in time and between periods (in brackets) and the direction from which the wind blows: N - North, NE - North-East, E - East, SE - South-East , S - South, SW - South-West, W - West, NW - North-West.
  • Visibility - horizontal visibility range in meters or kilometers. When visibility is from 1 to 10 km in the absence of precipitation, haze is usually observed, and when visibility is reduced to 1 km or less, fog is observed. In dry weather, visibility may be reduced by smoke, dust, or haze.
  • Phenomena - atmospheric phenomena observed during the period or in the last hour before the period are indicated; curly brackets indicate phenomena observed between periods (1-3 hours before the period); square brackets indicate hail or ice deposits with their diameter in mm.
  • Clouds - are through slash total and lower clouds in points, and the height of the lower border of the cloud in meters; square brackets contain cloud forms: Ci - Cirrus, Cs - Cirrostratus, Cc - Cirrocumulus, Ac - Altocumulus, As - Altostratus, Sc - Stratocumulus, Ns - Nimbostratus, Cu - Cumulus, Cb - Cumulonimbus. For more information about cloud classification, see the cloud Atlas (PDF).
  • T - Air temperature - temperature measured at a height of 2 m above the ground.
  • Td - Dew point temperature - the temperature is lowered to that contained in the air, the water vapor reaches saturation.
  • f - Relative humidity measured at a height of 2 m above the ground.
  • Te - Effective temperature is the temperature that a seasonally dressed person feels in the shade. Characteristic of stuffy weather. The calculation takes into account the influence of air humidity and wind speed on a person’s heat.
  • Tes - Effective sun temperature - the temperature that a person feels, adjusted for solar heating. Characteristics of the sultry weather. Depends on the height of the sun above the horizon, cloud cover and wind speed. At night, in cloudy weather, as well as in winds of 12 m/s or more, the correction is zero.
  • P - Atmospheric pressure - atmospheric pressure reduced to sea level.
  • Po - Atmospheric pressure - atmospheric pressure measured at the station level.
  • Tmin - Minimum temperature - minimum air temperature at a height of 2 m above the ground.
  • Tmax - Maximum temperature - maximum air temperature at a height of 2 m above the ground.
  • R - Precipitation - The amount of precipitation over a period of time, mm. When you hover over the number, the time period for which the specified amount of precipitation has fallen.
  • R24 - Количество осадков - The amount of precipitation in 24 hours, mm.
  • S - Snow cover - The height of the snow cover. When you hover the mouse over the number - the state of the snow cover and the degree of coverage in points.